Location: Dortmund
(51.5019°N, 7.6520°E)
Time: 00:44:55
(UTC+01:00)

ISS - Visible Passes

Search period start: 22 March 2019 00:00
Search period end: 01 April 2019 01:00
Orbit: 406 x 411 km, 51.6° (Epoch: 22 March)

Date Brightness Start Highest point End Pass type
(mag) Time Alt. Az. Time Alt. Az. Time Alt. Az.
22 Mar -1.7 19:38:36 10° SSE 19:40:05 12° SE 19:40:45 12° SE visible
22 Mar -1.3 21:12:51 10° SW 21:13:32 15° SW 21:13:32 15° SW visible
23 Mar -3.1 20:22:06 10° SW 20:25:06 33° SSE 20:25:12 33° SSE visible
24 Mar -2.4 19:31:32 10° SSW 19:34:12 23° SE 19:36:40 11° E visible
24 Mar -2.8 21:07:08 10° WSW 21:09:25 40° WSW 21:09:25 40° WSW visible
25 Mar -3.7 20:16:10 10° WSW 20:19:25 55° SSE 20:20:44 30° E visible
25 Mar -1.1 21:52:37 10° W 21:53:29 17° W 21:53:29 17° W visible
26 Mar -3.2 19:25:17 10° SW 19:28:25 40° SSE 19:31:32 10° E visible
26 Mar -3.8 21:01:32 10° W 21:04:40 79° W 21:04:40 79° W visible
27 Mar -3.9 20:10:27 10° WSW 20:13:45 80° S 20:15:45 22° E visible
27 Mar -1.6 21:47:01 10° W 21:48:29 24° W 21:48:29 24° W visible
28 Mar -4.0 20:55:55 10° W 20:59:14 86° N 20:59:29 74° ENE visible
29 Mar -3.8 20:04:47 10° W 20:08:06 86° N 20:10:27 18° E visible
29 Mar -2.0 21:41:22 10° W 21:43:11 29° W 21:43:11 29° W visible
30 Mar -3.9 20:50:15 10° W 20:53:33 83° SSW 20:54:05 59° ESE visible
31 Mar -3.8 20:59:06 10° W 21:02:25 88° N 21:04:59 16° E visible
31 Mar -2.2 22:35:42 10° W 22:37:42 30° WSW 22:37:42 30° WSW visible
